Weather History for New Orleans, LA

Change the Weather History Date:

Friday, April 12, 2013

  Actual Average Record
Temperature  
Mean Temperature 63 °F -  
Max Temperature 73 °F 77 °F 86 °F (1972)
Min Temperature 53 °F 57 °F 40 °F (1989)
Degree Days  
Heating Degree Days 2    
Growing Degree Days 13 (Base 50)    
Moisture  
Dew Point 47 °F    
Average Humidity 58    
Maximum Humidity 80    
Minimum Humidity 30    
Precipitation  
Precipitation 0.00 in - - ()
Sea Level Pressure  
Sea Level Pressure 29.95 in    
Wind  
Wind Speed 8 mph (North)    
Max Wind Speed 15 mph    
Max Gust Speed 22 mph    
Visibility 10 miles    
Events      
Averages and records for this station are not official NWS values.
T = Trace of Precipitation, MM = Missing Value Source: NWS Daily Summary

Daily Weather History Graph

Daily Weather History Graph

Search for Another Location

Airport:

Trip Planner

Search our weather history database for the weather conditions in past years. The results will help you decide how hot, cold, wet, or windy it might be!

Date:

Astronomy

Apr. 12, 2013 Rise Set
Actual Time 6:37 AM CDT 7:26 PM CDT
Civil Twilight 6:12 AM CDT 7:51 PM CDT
Nautical Twilight 5:44 AM CDT 8:19 PM CDT
Astronomical Twilight 5:14 AM CDT 8:49 PM CDT
Moon 7:56 AM CDT (4/12) 9:46 PM CDT (4/12)
Length of Visible Light 13h 38m
Length of Day
12h 49m
Waxing Crescent, 5% of the Moon is Illuminated
Apr 12
Waxing Crescent
Apr 18
First Quarter
Apr 25
Full
May 2
Last Quarter
May 9
New

Hourly Weather History & Observations

Time (CDT) Temp. Dew Point Humidity Pressure Visibility Wind Dir Wind Speed Gust Speed Precip Events Conditions
12:53 AM 55.0 °F 48.0 °F 77% 29.88 in 10.0 mi North 6.9 mph - N/A   Partly Cloudy
1:53 AM 55.0 °F 48.9 °F 80% 29.88 in 10.0 mi NNW 8.1 mph - N/A   Partly Cloudy
2:53 AM 55.0 °F 48.0 °F 77% 29.88 in 10.0 mi NNW 11.5 mph - N/A   Partly Cloudy
3:53 AM 54.0 °F 46.0 °F 75% 29.89 in 10.0 mi NNW 9.2 mph - N/A   Clear
4:53 AM 54.0 °F 45.0 °F 72% 29.91 in 10.0 mi North 11.5 mph - N/A   Partly Cloudy
5:53 AM 54.0 °F 45.0 °F 72% 29.92 in 10.0 mi North 9.2 mph - N/A   Partly Cloudy
6:53 AM 54.0 °F 46.0 °F 75% 29.94 in 10.0 mi North 11.5 mph 18.4 mph N/A   Scattered Clouds
7:53 AM 57.0 °F 46.9 °F 69% 29.96 in 10.0 mi North 11.5 mph 19.6 mph N/A   Scattered Clouds
8:53 AM 59.0 °F 46.0 °F 62% 29.97 in 10.0 mi North 15.0 mph - N/A   Partly Cloudy
9:53 AM 62.1 °F 48.0 °F 60% 29.99 in 10.0 mi North 15.0 mph - N/A   Partly Cloudy
10:53 AM 63.0 °F 48.0 °F 58% 30.00 in 10.0 mi North 12.7 mph - N/A   Partly Cloudy
11:53 AM 66.0 °F 48.0 °F 52% 30.00 in 10.0 mi North 11.5 mph - N/A   Scattered Clouds
12:53 PM 68.0 °F 48.9 °F 50% 29.99 in 10.0 mi NNW 9.2 mph 17.3 mph N/A   Scattered Clouds
1:53 PM 69.1 °F 46.0 °F 44% 29.98 in 10.0 mi North 9.2 mph 17.3 mph N/A   Scattered Clouds
2:53 PM 72.0 °F 48.0 °F 43% 29.95 in 10.0 mi NNW 8.1 mph 21.9 mph N/A   Scattered Clouds
3:53 PM 72.0 °F 46.9 °F 41% 29.93 in 10.0 mi NW 11.5 mph 17.3 mph N/A   Scattered Clouds
4:53 PM 73.0 °F 48.9 °F 42% 29.92 in 10.0 mi North 6.9 mph - N/A   Scattered Clouds
5:53 PM 73.0 °F 46.0 °F 38% 29.92 in 10.0 mi NNE 6.9 mph - N/A   Mostly Cloudy
6:53 PM 71.1 °F 46.0 °F 41% 29.93 in 10.0 mi North 3.5 mph - N/A   Mostly Cloudy
7:53 PM 66.0 °F 46.0 °F 48% 29.95 in 10.0 mi Calm Calm - N/A   Scattered Clouds
8:53 PM 66.9 °F 46.0 °F 47% 29.96 in 10.0 mi Calm Calm - N/A   Partly Cloudy
9:53 PM 64.0 °F 48.9 °F 58% 29.99 in 10.0 mi Calm Calm - N/A   Partly Cloudy
10:53 PM 60.1 °F 48.9 °F 67% 30.00 in 10.0 mi Calm Calm - N/A   Partly Cloudy
11:53 PM 61.0 °F 53.1 °F 75% 29.99 in 10.0 mi Calm Calm - N/A   Clear